This is the latest recevied weather packets stored in our database for station/object WP4PW. If no packets are shown the sender has not sent any weather packets the latest 10 day(s).
| Time | Temp. | Humidity | Pressure | Rain* | Wind** | Luminosity | Snow |
|---|---|---|---|---|---|---|---|
| 1778148814 | 26.11° C | 91% | 1020.5 hPa | 0 mm | - | 21 W/m² | - |
| 1778148511 | 26.11° C | 92% | 1020.4 hPa | 0 mm | - | 15 W/m² | - |
| 1778148209 | 26.11° C | 92% | 1020.3 hPa | 0 mm | - | 11 W/m² | - |
| 1778147907 | 26.11° C | 92% | 1020.4 hPa | 0 mm | - | 7 W/m² | - |
| 1778147603 | 26.11° C | 91% | 1020.4 hPa | 0 mm | - | 4 W/m² | - |
| 1778147300 | 26.11° C | 91% | 1020.1 hPa | 0 mm | - | 2 W/m² | - |
| 1778146996 | 26.11° C | 92% | 1020.5 hPa | 0 mm | - | 1 W/m² | - |
| 1778146694 | 26.11° C | 91% | 1020.4 hPa | 0 mm | - | 0 W/m² | - |
| 1778146392 | 26.11° C | 91% | 1020.3 hPa | 0 mm | - | 0 W/m² | - |
| 1778146090 | 26.11° C | 91% | 1020.4 hPa | 0 mm | - | 0 W/m² | - |
| 1778145786 | 26.11° C | 90% | 1020.4 hPa | 0 mm | - | 0 W/m² | - |
| 1778145483 | 26.11° C | 90% | 1020.4 hPa | 0 mm | - | 0 W/m² | - |
| 1778145180 | 26.11° C | 90% | 1020.3 hPa | 0 mm | - | 0 W/m² | - |
| 1778144880 | 26.11° C | 89% | 1020.3 hPa | 0 mm | - | 0 W/m² | - |
| 1778144577 | 26.11° C | 89% | 1020.4 hPa | 0 mm | - | 0 W/m² | - |
| 1778144274 | 26.11° C | 89% | 1020.5 hPa | 0 mm | - | 0 W/m² | - |
| 1778143668 | 26.11° C | 90% | 1020.3 hPa | 0 mm | - | 0 W/m² | - |
| 1778143364 | 26.11° C | 89% | 1020.4 hPa | 0 mm | - | 0 W/m² | - |
| 1778143062 | 26.11° C | 90% | 1020.3 hPa | 0 mm | - | 0 W/m² | - |
| 1778142758 | 26.11° C | 90% | 1020.3 hPa | 0 mm | - | 0 W/m² | - |
| 1778142454 | 26.11° C | 90% | 1020.3 hPa | 0 mm | - | 0 W/m² | - |
| 1778142150 | 26.11° C | 90% | 1020.2 hPa | 0 mm | - | 0 W/m² | - |
| 1778141847 | 26.11° C | 90% | 1020.4 hPa | 0 mm | - | 0 W/m² | - |
| 1778141543 | 26.11° C | 89% | 1020.3 hPa | 0 mm | - | 0 W/m² | - |
| 1778141240 | 26.67° C | 89% | 1020.2 hPa | 0 mm | - | 0 W/m² | - |
* Rain latest hour (hover to see other rain measurements)
** Current wind speed in m/s (hover to see current wind gust speed)